LVS073 DIL-SAZM

Flight info

Callsign LVS073
Flight time N/A
Altitude 5000
Route ESURO DCT MDP
Aircraft BR23/L-SFG/S

Departure

Time N/A
Airport DIL

Arrival

Time 2026-04-29 21:32
Airport Ástor Piazzola International Airport (SAZM)
Time Latitude Longitude Altitude Speed Heading
2026-04-29 20:30 -37.26752 -59.09603 575 ft 0 kts 179°
2026-04-29 20:33 -37.26749 -59.09622 575 ft 12 kts 313°
2026-04-29 20:33 -37.26725 -59.09649 575 ft 4 kts 28°
2026-04-29 20:34 -37.26719 -59.09640 574 ft 0 kts 60°
2026-04-29 20:34 -37.26718 -59.09638 574 ft 4 kts 59°
2026-04-29 20:35 -37.26544 -59.09313 569 ft 80 kts 58°
2026-04-29 20:35 -37.26195 -59.08638 733 ft 96 kts 53°
2026-04-29 20:35 -37.25823 -59.07909 931 ft 100 kts 78°
2026-04-29 20:35 -37.25918 -59.07143 1228 ft 84 kts 127°
2026-04-29 20:36 -37.26219 -59.06513 1483 ft 85 kts 132°
2026-04-29 20:36 -37.26518 -59.05873 1685 ft 85 kts 134°
2026-04-29 20:36 -37.26819 -59.05231 1946 ft 85 kts 133°
2026-04-29 20:36 -37.27116 -59.04598 2245 ft 85 kts 134°
2026-04-29 20:37 -37.27417 -59.03961 2540 ft 85 kts 135°
2026-04-29 20:37 -37.27720 -59.03321 2821 ft 86 kts 135°
2026-04-29 20:37 -37.28025 -59.02674 3105 ft 86 kts 135°
2026-04-29 20:37 -37.28333 -59.02023 3347 ft 87 kts 135°
2026-04-29 20:38 -37.28638 -59.01377 3577 ft 87 kts 135°
2026-04-29 20:38 -37.28949 -59.00717 3821 ft 88 kts 134°
2026-04-29 20:38 -37.29260 -59.00058 4052 ft 88 kts 134°
2026-04-29 20:38 -37.29574 -58.99393 4283 ft 89 kts 134°
2026-04-29 20:39 -37.29892 -58.98718 4518 ft 90 kts 135°
2026-04-29 20:39 -37.30215 -58.98033 4752 ft 91 kts 135°
2026-04-29 20:39 -37.30552 -58.97329 4884 ft 102 kts 135°
2026-04-29 20:39 -37.30944 -58.96525 4896 ft 112 kts 133°
2026-04-29 20:40 -37.31349 -58.95667 4899 ft 115 kts 132°
2026-04-29 20:40 -37.31748 -58.94803 4898 ft 116 kts 131°
2026-04-29 20:40 -37.32154 -58.93921 4893 ft 117 kts 131°
2026-04-29 20:40 -37.32559 -58.93036 4888 ft 116 kts 131°
2026-04-29 20:41 -37.32961 -58.92157 4888 ft 116 kts 130°
2026-04-29 20:41 -37.33364 -58.91280 4885 ft 116 kts 131°
2026-04-29 20:41 -37.33767 -58.90397 4888 ft 116 kts 131°
2026-04-29 20:41 -37.34170 -58.89516 4883 ft 116 kts 130°
2026-04-29 20:42 -37.34566 -58.88648 4885 ft 114 kts 131°
2026-04-29 20:42 -37.34958 -58.87790 4880 ft 113 kts 131°
2026-04-29 20:42 -37.35348 -58.86940 4881 ft 112 kts 132°
2026-04-29 20:42 -37.35736 -58.86090 4880 ft 112 kts 132°
2026-04-29 20:43 -37.36126 -58.85238 4877 ft 113 kts 132°
2026-04-29 20:43 -37.36516 -58.84383 4879 ft 113 kts 131°
2026-04-29 20:43 -37.36908 -58.83526 4876 ft 114 kts 132°
2026-04-29 20:43 -37.37303 -58.82660 4880 ft 114 kts 131°
2026-04-29 20:44 -37.37701 -58.81790 4877 ft 115 kts 131°
2026-04-29 20:44 -37.38099 -58.80916 4876 ft 115 kts 131°
2026-04-29 20:44 -37.38490 -58.80057 4873 ft 115 kts 131°
2026-04-29 20:44 -37.38885 -58.79190 4876 ft 114 kts 131°
2026-04-29 20:45 -37.39283 -58.78318 4875 ft 115 kts 131°
2026-04-29 20:45 -37.39679 -58.77449 4871 ft 115 kts 131°
2026-04-29 20:45 -37.40074 -58.76581 4871 ft 114 kts 131°
2026-04-29 20:45 -37.40468 -58.75716 4870 ft 113 kts 131°
2026-04-29 20:46 -37.40858 -58.74860 4865 ft 112 kts 131°
2026-04-29 20:46 -37.41246 -58.74006 4869 ft 112 kts 131°
2026-04-29 20:46 -37.41634 -58.73155 4872 ft 112 kts 131°
2026-04-29 20:46 -37.42023 -58.72302 4872 ft 112 kts 131°
2026-04-29 20:47 -37.42411 -58.71449 4866 ft 112 kts 131°
2026-04-29 20:47 -37.42799 -58.70594 4870 ft 112 kts 132°
2026-04-29 20:47 -37.43187 -58.69742 4874 ft 112 kts 132°
2026-04-29 20:47 -37.43575 -58.68890 4869 ft 113 kts 133°
2026-04-29 20:48 -37.43959 -58.68042 4868 ft 113 kts 133°
2026-04-29 20:48 -37.44350 -58.67182 4862 ft 113 kts 133°
2026-04-29 20:48 -37.44740 -58.66324 4868 ft 113 kts 132°
2026-04-29 20:48 -37.45130 -58.65465 4866 ft 113 kts 132°
2026-04-29 20:49 -37.45523 -58.64601 4864 ft 114 kts 132°
2026-04-29 20:49 -37.45916 -58.63736 4872 ft 114 kts 131°
2026-04-29 20:49 -37.46306 -58.62873 4870 ft 113 kts 131°
2026-04-29 20:49 -37.46695 -58.62015 4872 ft 113 kts 131°
2026-04-29 20:50 -37.47085 -58.61156 4869 ft 113 kts 131°
2026-04-29 20:50 -37.47474 -58.60297 4864 ft 113 kts 131°
2026-04-29 20:50 -37.47856 -58.59454 4860 ft 112 kts 132°
2026-04-29 20:50 -37.48243 -58.58602 4867 ft 111 kts 132°
2026-04-29 20:51 -37.48625 -58.57757 4862 ft 111 kts 133°
2026-04-29 20:51 -37.49008 -58.56910 4859 ft 111 kts 133°
2026-04-29 20:51 -37.49390 -58.56068 4864 ft 111 kts 133°
2026-04-29 20:51 -37.49773 -58.55223 4854 ft 111 kts 133°
2026-04-29 20:52 -37.50155 -58.54377 4851 ft 111 kts 133°
2026-04-29 20:52 -37.50538 -58.53532 4855 ft 111 kts 133°
2026-04-29 20:52 -37.50922 -58.52685 4850 ft 112 kts 132°
2026-04-29 20:52 -37.51309 -58.51827 4848 ft 113 kts 132°
2026-04-29 20:53 -37.51699 -58.50966 4854 ft 113 kts 132°
2026-04-29 20:53 -37.52089 -58.50102 4854 ft 113 kts 132°
2026-04-29 20:53 -37.52479 -58.49239 4857 ft 113 kts 131°
2026-04-29 20:53 -37.52869 -58.48377 4858 ft 113 kts 132°
2026-04-29 20:54 -37.53649 -58.46646 4865 ft 114 kts 132°
2026-04-29 20:54 -37.54034 -58.45793 4854 ft 113 kts 132°
2026-04-29 20:54 -37.54422 -58.44933 4858 ft 112 kts 133°
2026-04-29 20:55 -37.54807 -58.44080 4856 ft 112 kts 132°
2026-04-29 20:55 -37.55190 -58.43231 4857 ft 111 kts 132°
2026-04-29 20:55 -37.55573 -58.42382 4851 ft 112 kts 132°
2026-04-29 20:55 -37.55958 -58.41529 4855 ft 112 kts 133°
2026-04-29 20:56 -37.56344 -58.40672 4852 ft 113 kts 132°
2026-04-29 20:56 -37.56732 -58.39811 4857 ft 113 kts 132°
2026-04-29 20:56 -37.57114 -58.38963 4856 ft 113 kts 132°
2026-04-29 20:56 -37.57501 -58.38103 4856 ft 113 kts 131°
2026-04-29 20:57 -37.57890 -58.37240 4855 ft 113 kts 132°
2026-04-29 20:57 -37.58278 -58.36377 4859 ft 113 kts 132°
2026-04-29 20:57 -37.58664 -58.35517 4855 ft 112 kts 132°
2026-04-29 20:57 -37.59048 -58.34664 4857 ft 111 kts 132°
2026-04-29 20:58 -37.59431 -58.33813 4851 ft 112 kts 132°
2026-04-29 20:58 -37.59814 -58.32962 4852 ft 112 kts 133°
2026-04-29 20:58 -37.60200 -58.32103 4850 ft 112 kts 132°
2026-04-29 20:58 -37.60586 -58.31245 4843 ft 112 kts 133°
2026-04-29 20:59 -37.60972 -58.30385 4844 ft 113 kts 133°
2026-04-29 20:59 -37.61359 -58.29525 4847 ft 113 kts 132°
2026-04-29 20:59 -37.61742 -58.28668 4853 ft 114 kts 132°
2026-04-29 20:59 -37.62135 -58.27790 4845 ft 114 kts 132°
2026-04-29 21:00 -37.62519 -58.26933 4851 ft 113 kts 132°
2026-04-29 21:00 -37.62910 -58.26069 4848 ft 114 kts 133°
2026-04-29 21:00 -37.63302 -58.25196 4853 ft 115 kts 133°
2026-04-29 21:00 -37.63696 -58.24316 4852 ft 115 kts 132°
2026-04-29 21:01 -37.64091 -58.23436 4858 ft 115 kts 132°
2026-04-29 21:01 -37.64487 -58.22550 4850 ft 116 kts 132°
2026-04-29 21:01 -37.64884 -58.21664 4855 ft 116 kts 133°
2026-04-29 21:01 -37.65281 -58.20776 4857 ft 116 kts 132°
2026-04-29 21:02 -37.65678 -58.19890 4852 ft 116 kts 132°
2026-04-29 21:02 -37.66075 -58.19003 4853 ft 115 kts 132°
2026-04-29 21:02 -37.66469 -58.18123 4842 ft 115 kts 132°
2026-04-29 21:02 -37.66835 -58.17306 4840 ft 115 kts 132°
2026-04-29 21:03 -37.66971 -58.17001 4838 ft 114 kts 133°
2026-04-29 21:03 -37.67361 -58.16128 4841 ft 114 kts 133°
2026-04-29 21:03 -37.67751 -58.15256 4837 ft 114 kts 133°
2026-04-29 21:03 -37.68140 -58.14385 4837 ft 114 kts 133°
2026-04-29 21:04 -37.68543 -58.13528 4831 ft 109 kts 144°
2026-04-29 21:04 -37.69091 -58.12943 4833 ft 104 kts 156°
2026-04-29 21:04 -37.69640 -58.12338 4836 ft 105 kts 154°
2026-04-29 21:04 -37.70187 -58.11716 4837 ft 106 kts 153°
2026-04-29 21:05 -37.70732 -58.11087 4834 ft 106 kts 153°
2026-04-29 21:05 -37.71277 -58.10451 4838 ft 107 kts 153°
2026-04-29 21:05 -37.71822 -58.09813 4839 ft 107 kts 153°
2026-04-29 21:05 -37.72185 -58.09388 4852 ft 107 kts 153°
2026-04-29 21:06 -37.72733 -58.08744 4845 ft 107 kts 153°
2026-04-29 21:06 -37.73279 -58.08103 4849 ft 107 kts 153°
2026-04-29 21:06 -37.73826 -58.07460 4850 ft 107 kts 153°
2026-04-29 21:06 -37.74371 -58.06818 4850 ft 107 kts 153°
2026-04-29 21:07 -37.74917 -58.06177 4838 ft 107 kts 152°
2026-04-29 21:07 -37.75458 -58.05540 4842 ft 106 kts 152°
2026-04-29 21:07 -37.75992 -58.04911 4840 ft 106 kts 152°
2026-04-29 21:07 -37.76531 -58.04277 4840 ft 106 kts 152°
2026-04-29 21:08 -37.77070 -58.03643 4839 ft 106 kts 152°
2026-04-29 21:08 -37.77610 -58.03007 4840 ft 106 kts 152°
2026-04-29 21:08 -37.78150 -58.02371 4838 ft 106 kts 152°
2026-04-29 21:08 -37.78690 -58.01735 4841 ft 106 kts 153°
2026-04-29 21:09 -37.79230 -58.01099 4840 ft 106 kts 153°
2026-04-29 21:09 -37.79769 -58.00464 4838 ft 106 kts 152°
2026-04-29 21:09 -37.80307 -57.99830 4841 ft 106 kts 152°
2026-04-29 21:09 -37.80842 -57.99197 4838 ft 105 kts 153°
2026-04-29 21:10 -37.81377 -57.98567 4840 ft 105 kts 153°
2026-04-29 21:10 -37.81912 -57.97936 4847 ft 105 kts 153°
2026-04-29 21:10 -37.82446 -57.97306 4845 ft 104 kts 153°
2026-04-29 21:10 -37.82968 -57.96690 4846 ft 104 kts 153°
2026-04-29 21:11 -37.83497 -57.96067 4845 ft 104 kts 154°
2026-04-29 21:11 -37.84020 -57.95449 4845 ft 104 kts 153°
2026-04-29 21:11 -37.84551 -57.94822 4844 ft 105 kts 153°
2026-04-29 21:11 -37.85086 -57.94191 4842 ft 105 kts 153°
2026-04-29 21:12 -37.85623 -57.93557 4844 ft 106 kts 153°
2026-04-29 21:12 -37.86160 -57.92922 4845 ft 105 kts 154°
2026-04-29 21:12 -37.86695 -57.92289 4847 ft 105 kts 154°
2026-04-29 21:12 -37.87227 -57.91661 4846 ft 104 kts 154°
2026-04-29 21:13 -37.87755 -57.91036 4845 ft 104 kts 154°
2026-04-29 21:13 -37.88286 -57.90409 4844 ft 105 kts 154°
2026-04-29 21:13 -37.88818 -57.89779 4844 ft 104 kts 154°
2026-04-29 21:13 -37.89347 -57.89153 4846 ft 104 kts 154°
2026-04-29 21:14 -37.89873 -57.88532 4844 ft 105 kts 154°
2026-04-29 21:14 -37.90405 -57.87902 4843 ft 105 kts 154°
2026-04-29 21:14 -37.90937 -57.87273 4847 ft 105 kts 154°
2026-04-29 21:14 -37.91479 -57.86633 4853 ft 107 kts 153°
2026-04-29 21:15 -37.92028 -57.85982 4853 ft 108 kts 153°
2026-04-29 21:15 -37.92568 -57.85339 4851 ft 105 kts 154°
2026-04-29 21:15 -37.93099 -57.84714 4853 ft 105 kts 154°
2026-04-29 21:15 -37.93633 -57.84078 4851 ft 105 kts 154°
2026-04-29 21:16 -37.94160 -57.83454 4844 ft 102 kts 154°
2026-04-29 21:16 -37.94675 -57.82845 4847 ft 102 kts 155°
2026-04-29 21:16 -37.95199 -57.82223 4841 ft 105 kts 154°
2026-04-29 21:16 -37.95719 -57.81603 4840 ft 101 kts 155°
2026-04-29 21:17 -37.96238 -57.80992 4846 ft 103 kts 155°
2026-04-29 21:17 -37.96770 -57.80362 4848 ft 106 kts 155°
2026-04-29 21:17 -37.97312 -57.79719 4855 ft 108 kts 154°
2026-04-29 21:17 -37.97841 -57.79041 4854 ft 115 kts 138°
2026-04-29 21:18 -37.98211 -57.78120 4855 ft 116 kts 133°
2026-04-29 21:18 -37.98584 -57.77211 4855 ft 117 kts 132°
2026-04-29 21:18 -37.98954 -57.76294 4854 ft 117 kts 132°
2026-04-29 21:18 -37.99322 -57.75380 4853 ft 116 kts 132°
2026-04-29 21:19 -37.99689 -57.74465 4854 ft 117 kts 131°
2026-04-29 21:19 -38.00055 -57.73548 4859 ft 117 kts 131°
2026-04-29 21:19 -38.00416 -57.72641 4859 ft 116 kts 132°
2026-04-29 21:19 -38.00781 -57.71727 4855 ft 116 kts 132°
2026-04-29 21:20 -38.01146 -57.70816 4856 ft 116 kts 132°
2026-04-29 21:20 -38.01511 -57.69901 4854 ft 116 kts 132°
2026-04-29 21:20 -38.01878 -57.68979 4856 ft 117 kts 132°
2026-04-29 21:20 -38.02241 -57.68066 4850 ft 115 kts 132°
2026-04-29 21:21 -38.02604 -57.67160 4851 ft 115 kts 132°
2026-04-29 21:21 -38.02968 -57.66248 4852 ft 116 kts 132°
2026-04-29 21:21 -38.03334 -57.65332 4854 ft 117 kts 132°
2026-04-29 21:21 -38.03702 -57.64408 4853 ft 117 kts 132°
2026-04-29 21:22 -38.04069 -57.63484 4840 ft 119 kts 131°
2026-04-29 21:22 -38.04445 -57.62542 4711 ft 117 kts 131°
2026-04-29 21:22 -38.04802 -57.61641 4589 ft 115 kts 131°
2026-04-29 21:22 -38.05163 -57.60736 4454 ft 115 kts 132°
2026-04-29 21:23 -38.05524 -57.59829 4316 ft 115 kts 132°
2026-04-29 21:23 -38.05884 -57.58924 4192 ft 114 kts 132°
2026-04-29 21:23 -38.06242 -57.58023 4053 ft 114 kts 132°
2026-04-29 21:23 -38.06599 -57.57125 3928 ft 114 kts 132°
2026-04-29 21:24 -38.06957 -57.56224 3798 ft 115 kts 132°
2026-04-29 21:24 -38.07314 -57.55329 3670 ft 115 kts 132°
2026-04-29 21:24 -38.07676 -57.54418 3543 ft 116 kts 133°
2026-04-29 21:24 -38.07885 -57.53393 3408 ft 133 kts 89°
2026-04-29 21:25 -38.07429 -57.52371 3271 ft 133 kts 32°
2026-04-29 21:25 -38.06632 -57.51880 3141 ft 126 kts 10°
2026-04-29 21:25 -38.05822 -57.51438 3021 ft 127 kts 12°
2026-04-29 21:25 -38.05035 -57.51005 2990 ft 120 kts 11°
2026-04-29 21:26 -38.04274 -57.50593 2981 ft 117 kts 11°
2026-04-29 21:26 -38.03539 -57.50194 2981 ft 116 kts 11°
2026-04-29 21:26 -38.02799 -57.49793 2987 ft 116 kts 11°
2026-04-29 21:26 -38.02055 -57.49390 2945 ft 120 kts 12°
2026-04-29 21:27 -38.01261 -57.48958 2465 ft 122 kts 13°
2026-04-29 21:27 -38.00492 -57.48534 1970 ft 119 kts 13°
2026-04-29 21:27 -37.99777 -57.48138 1625 ft 104 kts 10°
2026-04-29 21:27 -37.99156 -57.47805 1398 ft 97 kts
2026-04-29 21:28 -37.98542 -57.47790 1217 ft 79 kts 321°
2026-04-29 21:28 -37.98108 -57.48129 1250 ft 65 kts 292°
2026-04-29 21:28 -37.97865 -57.48589 1369 ft 68 kts 284°
2026-04-29 21:28 -37.97606 -57.49102 1516 ft 74 kts 291°
2026-04-29 21:29 -37.97228 -57.49631 1526 ft 86 kts 291°
2026-04-29 21:29 -37.96950 -57.50261 1511 ft 77 kts 276°
2026-04-29 21:29 -37.96667 -57.50859 1458 ft 84 kts 288°
2026-04-29 21:29 -37.96366 -57.51492 1419 ft 83 kts 288°
2026-04-29 21:30 -37.96059 -57.52130 1364 ft 84 kts 286°
2026-04-29 21:30 -37.95738 -57.52740 1222 ft 87 kts 297°
2026-04-29 21:30 -37.95422 -57.53354 1030 ft 82 kts 284°
2026-04-29 21:30 -37.95106 -57.53970 858 ft 84 kts 291°
2026-04-29 21:31 -37.94807 -57.54590 697 ft 78 kts 294°
2026-04-29 21:31 -37.94513 -57.55167 505 ft 78 kts 292°
2026-04-29 21:31 -37.94259 -57.55674 303 ft 63 kts 295°
2026-04-29 21:31 -37.94030 -57.56129 173 ft 61 kts 294°
2026-04-29 21:32 -37.93804 -57.56574 73 ft 57 kts 290°
2026-04-29 21:32 -37.93593 -57.56983 51 ft 49 kts 295°
2026-04-29 21:32 -37.93469 -57.57254 46 ft 23 kts 304°
2026-04-29 21:32 -37.93378 -57.57434 46 ft 18 kts 306°
2026-04-29 21:33 -37.93303 -57.57562 46 ft 24 kts 304°
2026-04-29 21:33 -37.93226 -57.57709 48 ft 19 kts 303°
2026-04-29 21:33 -37.93151 -57.57858 48 ft 21 kts 301°
2026-04-29 21:33 -37.93165 -57.57988 48 ft 11 kts 211°
2026-04-29 21:34 -37.93206 -57.58020 48 ft 4 kts 208°
2026-04-29 21:34 -37.93233 -57.58069 48 ft 8 kts 291°
2026-04-29 21:34 -37.93223 -57.58094 48 ft 0 kts 296°